+ View the NASA Portal
+ Center for Near-Earth Object Studies
IMPORTANT:
The SSD Announcement email list is now available. Major changes are coming in the near future, including possible hostname and/or URL changes. To be notified of such changes, subscribe to this email list.
Please visit
this page
for more details.
Don't show this message again
JPL Small-Body Database Browser
Search:
[
help
]
173101 (2007 TV320)
Classification:
Main-belt Asteroid
SPK-ID:
2173101
[
Ephemeris
|
Orbit Diagram
|
Orbital Elements
|
Mission Design
|
Physical Parameters
|
Discovery Circumstances
]
[ show orbit diagram ]
Orbital Elements at Epoch 2458600.5 (2019-Apr-27.0) TDB
Reference:
JPL 12
(heliocentric ecliptic J2000)
Element
Value
Uncertainty (1-sigma)
Units
e
.07727155826775214
5.8243e-08
a
2.861235722822617
3.1657e-08
au
q
2.640143579948755
1.787e-07
au
i
7.366889310316757
5.8472e-06
deg
node
104.7175969142022
5.279e-05
deg
peri
291.9010608979362
6.9152e-05
deg
M
142.0351403635884
4.7028e-05
deg
t
p
2457903.035369411947
(2017-May-29.53536941)
0.00022545
TDB
period
1767.782721719103
4.84
2.9338e-05
8.032e-08
d
yr
n
.2036449364376146
3.3797e-09
deg/d
Q
3.082327865696478
3.4103e-08
au
Orbit Determination Parameters
# obs. used (total)
254
data-arc span
6041 days (16.54 yr)
first obs. used
2002-10-09
last obs. used
2019-04-24
planetary ephem.
DE431
SB-pert. ephem.
SB431-N16
condition code
0
norm. resid. RMS
.62468
source
ORB
producer
Otto Matic
solution date
2019-Jul-14 09:47:38
Additional Information
Earth MOID
= 1.6582 au
Jupiter MOID
= 2.252 au
T_jup
= 3.285
[ show covariance matrix ]
[
Ephemeris
|
Orbit Diagram
|
Orbital Elements
|
Mission Design
|
Physical Parameters
|
Discovery Circumstances
]
Physical Parameter Table
Parameter
Symbol
Value
Units
Sigma
Reference
Notes
absolute magnitude
H
15.8
n/a
MPO433111
173101 (2007 TV320)
Discovered 2007-Oct-13 by CSS at Catalina
Reference:
20071224/Numbers.arc
Last Updated:
2007-12-22
Alternate Designations
2007 TV320
= 2004 CY61
[
Ephemeris
|
Orbit Diagram
|
Orbital Elements
|
Mission Design
|
Physical Parameters
|
Discovery Circumstances
]
2019-Dec-13 22:00 UT
(server date/time)
Site Manager:
Ryan S. Park
Webmaster
:
Alan B. Chamberlin